sat.trackr.live / text

‹ back to catalog

STARLINK-35140

NORAD 65501 · 2025-198K

PAYLOAD ACTIVE UNKNOWN

§ Identity

Operator
Country
US
Launch date
2025-09-05
Launch site
AFETR
Launch vehicle
Mass (kg)
RCS (m²)

Purposes: comms

External: N2YO · Heavens-Above · Gunter

§ Orbital elements

Epoch: 2026-05-25T02:19:20.839872Z

Period
93.85 min
Inclination
53.1596°
Eccentricity
0.0001291
Mean motion
15.34389043 rev/d
Perigee alt
461.9 km
Apogee alt
463.6 km
Semi-major
6,840.9 km
B*
1.0610e-3
RAAN
275.0106°
Arg perigee
97.9629°
Mean anomaly
262.1520°
Rev number
4,033

§ Raw data

STARLINK-351401 65501U 25198K   26145.09676898  .00035630  00000+0  10610-2 0  99992 65501  53.1596 275.0106 0001291  97.9629 262.1520 15.34389043 40332

JSON: /api/v1/satellites/65501 · /tle

For live sub-satellite position, see the globe view (requires WebGL).

§ Visibility from observer

Set your observer location to see the next 7 days of passes ≥ 10°. The values pass through the URL so the page stays shareable.

No JS? Fill the form by hand. The geolocation button needs JavaScript.